EW0322 Weather Reports


Display with metric or nautical units.
time (UTC)temp
F
wind
direction
speed
MPH
gust
MPH
rain 1hr
in
rain 24hr
in
rain mn
in
humidity
%
barometer
mb
20260904014553 91 234 1.0 8.0 0.00 0.00 0.00 27 1001.2
20260904013052 91 237 2.0 7.0 0.00 0.00 0.00 27 1001.2
20260904011553 92 238 1.0 8.0 0.00 0.00 0.00 26 1001.1
20260904010053 92 237 1.0 4.0 0.00 0.00 0.00 25 1001.1
20260904004551 93 237 0.0 5.0 0.00 0.00 0.00 25 1000.9
20260904003050 93 234 1.0 7.0 0.00 0.00 0.00 25 1000.9
20260904001549 93 234 0.0 5.0 0.00 0.00 0.00 25 1000.8
20260904000049 94 236 0.0 8.0 0.00 0.00 0.00 25 1000.9
20260903234549 94 236 2.0 5.0 0.00 0.00 0.00 25 1000.8
20260903233050 96 234 1.0 5.0 0.00 0.00 0.00 24 1000.8
20260903231550 97 238 0.0 4.0 0.00 0.00 0.00 24 1000.8
20260903230049 96 235 0.0 6.0 0.00 0.00 0.00 24 1000.9
20260903224546 96 221 1.0 6.0 0.00 0.00 0.00 24 1001.0
20260903223043 96 227 0.0 7.0 0.00 0.00 0.00 24 1001.1
20260903221548 95 194 4.0 13.0 0.00 0.00 0.00 24 1001.2
20260903220041 96 225 4.0 10.0 0.00 0.00 0.00 25 1001.3
20260903214539 98 238 0.0 5.0 0.00 0.00 0.00 24 1001.6
20260903213036 96 238 2.0 9.0 0.00 0.00 0.00 26 1001.7
20260903211533 97 248 0.0 8.0 0.00 0.00 0.00 25 1001.9
20260903210030 97 249 1.0 9.0 0.00 0.00 0.00 25 1002.2
20260903204527 95 236 1.0 9.0 0.00 0.00 0.00 26 1002.5
20260903203034 96 240 1.0 10.0 0.00 0.00 0.00 25 1002.7
20260903201524 94 205 0.0 7.0 0.00 0.00 0.00 28 1002.8
20260903200038 95 233 3.0 10.0 0.00 0.00 0.00 26 1003.1
20260903194535 96 260 0.0 4.0 0.00 0.00 0.00 26 1003.2
20260903193025 95 245 0.0 5.0 0.00 0.00 0.00 27 1003.4
20260903191515 93 234 2.0 7.0 0.00 0.00 0.00 28 1003.7
20260903190016 93 237 1.0 9.0 0.00 0.00 0.00 28 1003.9
20260903184513 96 236 0.0 4.0 0.00 0.00 0.00 26 1004.2
20260903183008 94 234 1.0 4.0 0.00 0.00 0.00 27 1004.5
20260903181504 93 239 0.0 8.0 0.00 0.00 0.00 29 1004.8
20260903180116 92 240 1.0 10.0 0.00 0.00 0.00 31 1005.1
20260903174556 91 237 1.0 7.0 0.00 0.00 0.00 32 1005.4
20260903173044 90 238 1.0 9.0 0.00 0.00 0.00 34 1005.4
20260903171516 90 241 2.0 11.0 0.00 0.00 0.00 34 1005.4
20260903170013 88 227 3.0 6.0 0.00 0.00 0.00 34 1005.5
20260903164510 87 234 3.0 9.0 0.00 0.00 0.00 36 1005.5
20260903163011 85 232 3.0 8.0 0.00 0.00 0.00 38 1005.5
20260903161508 86 230 3.0 7.0 0.00 0.00 0.00 37 1005.4
20260903160007 85 234 1.0 5.0 0.00 0.00 0.00 40 1005.5
20260903154506 83 232 1.0 7.0 0.00 0.00 0.00 42 1005.6
20260903153005 83 234 1.0 6.0 0.00 0.00 0.00 41 1005.5
20260903151505 83 240 1.0 7.0 0.00 0.00 0.00 42 1005.6
20260903150001 82 235 2.0 7.0 0.00 0.00 0.00 43 1005.7
20260903144600 82 229 2.0 8.0 0.00 0.00 0.00 43 1005.7
20260903143057 81 241 1.0 9.0 0.00 0.00 0.00 44 1005.8
20260903141554 79 240 2.0 9.0 0.00 0.00 0.00 46 1005.9
20260903140049 78 240 2.0 9.0 0.00 0.00 0.00 47 1006.0
20260903134548 78 240 0.0 8.0 0.00 0.00 0.00 47 1005.9
20260903133045 77 240 2.0 10.0 0.00 0.00 0.00 47 1005.9
20260903131541 77 242 1.0 4.0 0.00 0.00 0.00 47 1005.8
20260903130053 77 246 0.0 8.0 0.00 0.00 0.00 47 1005.6
20260903124534 77 248 0.0 4.0 0.00 0.00 0.00 47 1005.5
20260903123035 77 246 1.0 7.0 0.00 0.00 0.00 46 1005.7
20260903121535 78 235 2.0 10.0 0.00 0.00 0.00 45 1005.5
20260903120030 78 239 1.0 7.0 0.00 0.00 0.00 45 1005.2
20260903114525 78 239 0.0 3.0 0.00 0.00 0.00 45 1004.9
20260903113033 78 238 0.0 7.0 0.00 0.00 0.00 45 1004.8
20260903111524 78 238 0.0 8.0 0.00 0.00 0.00 45 1004.8
20260903110051 78 238 0.0 7.0 0.00 0.00 0.00 45 1004.7
20260903104521 78 238 0.0 7.0 0.00 0.00 0.00 46 1004.6
20260903103023 78 238 0.0 10.0 0.00 0.00 0.00 46 1004.7
20260903101522 78 238 2.0 9.0 0.00 0.00 0.00 46 1004.7
20260903100025 78 238 3.0 7.0 0.00 0.00 0.00 46 1004.7
20260903094542 78 229 3.0 8.0 0.00 0.00 0.00 46 1004.7
20260903093017 78 238 3.0 9.0 0.00 0.00 0.00 46 1004.6
20260903091514 79 236 3.0 12.0 0.00 0.00 0.00 45 1004.4
20260903090014 79 238 3.0 7.0 0.00 0.00 0.00 45 1004.3
20260903084513 79 241 2.0 10.0 0.00 0.00 0.00 45 1004.1
20260903083010 79 239 3.0 12.0 0.00 0.00 0.00 45 1004.2
20260903081509 80 240 2.0 9.0 0.00 0.00 0.00 44 1004.2
20260903080006 80 239 3.0 11.0 0.00 0.00 0.00 43 1004.2
20260903074504 82 244 2.0 11.0 0.00 0.00 0.00 40 1004.1
20260903073101 83 237 4.0 12.0 0.00 0.00 0.00 37 1004.3
20260903071555 85 234 2.0 7.0 0.00 0.00 0.00 31 1004.1
20260903070051 85 232 1.0 3.0 0.00 0.00 0.00 31 1003.9
20260903064550 86 232 0.0 3.0 0.00 0.00 0.00 31 1003.8
20260903063047 86 232 0.0 3.0 0.00 0.00 0.00 31 1003.7
20260903061552 86 232 1.0 6.0 0.00 0.00 0.00 30 1003.9
20260903060043 86 232 1.0 4.0 0.00 0.00 0.00 30 1003.9
20260903054547 87 232 0.0 2.0 0.00 0.00 0.00 29 1004.0
20260903053100 87 232 0.0 0.0 0.00 0.00 0.00 29 1003.9
20260903051542 87 232 0.0 1.0 0.00 0.00 0.00 28 1003.9
20260903050040 88 232 0.0 0.0 0.00 0.00 0.00 28 1004.0
20260903044550 88 232 0.0 0.0 0.00 0.00 0.00 28 1003.9
20260903043038 88 232 0.0 0.0 0.00 0.00 0.00 28 1003.9
20260903041538 88 232 0.0 0.0 0.00 0.00 0.00 28 1003.9
20260903040039 89 232 0.0 0.0 0.00 0.00 0.00 27 1003.8
20260903034536 89 232 0.0 0.0 0.00 0.00 0.00 27 1003.6
20260903033037 90 232 0.0 0.0 0.00 0.00 0.00 26 1003.5
20260903031537 90 232 0.0 0.0 0.00 0.00 0.00 26 1003.3
20260903030040 91 232 0.0 0.0 0.00 0.00 0.00 25 1003.2
20260903024541 91 232 0.0 0.0 0.00 0.00 0.00 25 1002.9
20260903023034 91 232 0.0 3.0 0.00 0.00 0.00 25 1002.6
20260903021536 92 232 0.0 1.0 0.00 0.00 0.00 25 1002.7
20260903020034 92 232 0.0 3.0 0.00 0.00 0.00 24 1002.6